sat.trackr.live / text

‹ back to catalog

STARLINK-4634

NORAD 53967 · 2022-125D

PAYLOAD ACTIVE UNKNOWN

§ Identity

Operator
Country
US
Launch date
2022-10-05
Launch site
AFWTR
Launch vehicle
Mass (kg)
RCS (m²)

Purposes: comms

External: N2YO · Heavens-Above · Gunter

§ Orbital elements

Epoch: 2026-05-24T17:55:22.376928Z

Period
95.44 min
Inclination
53.2128°
Eccentricity
0.0001162
Mean motion
15.08841705 rev/d
Perigee alt
538.9 km
Apogee alt
540.5 km
Semi-major
6,917.9 km
B*
7.2387e-5
RAAN
242.7220°
Arg perigee
94.1990°
Mean anomaly
265.9135°
Rev number
20,080

§ Raw data

STARLINK-46341 53967U 22125D   26144.74678677  .00000864  00000+0  72387-4 0  99992 53967  53.2128 242.7220 0001162  94.1990 265.9135 15.08841705200804

JSON: /api/v1/satellites/53967 · /tle

For live sub-satellite position, see the globe view (requires WebGL).

§ Visibility from observer

Set your observer location to see the next 7 days of passes ≥ 10°. The values pass through the URL so the page stays shareable.

No JS? Fill the form by hand. The geolocation button needs JavaScript.